FREGAT DEB, 45820

Orbit data source: Space-Track

FREGAT DEB, 45820 is space debris in LEO originally from a launch on Mon, 18 Jul 2011 UTC launched from the Tyuratam Missile And Space Complex (TTMTR). Debris objects in space refer to the collection of defunct objects orbiting the Earth. Examples of debris include non-operational satellites, rocket bodies, and fragments generated from explosions, collisions, or faulty payload assembly.

Loading next visibility...
Identifier
45820, 2011-037BE
Orbit
LEO
Country
Flag of CISCIS
Related business
Manufacturer
Lavochkin
Mission
Spacecraft
Bus & Motor
Unknown
Mass
Unknown
Launch date (UTC)
2011-07-18 (14 years ago)
Launch vehicle
Unknown
Launch site
Tyuratam Missile And Space Complex (TTMTR)
Object type
Payload
Rocket body
Debris
Shape & HBR
Unknown shape, 0.1 m
Radar Cross Section
Small (<0.1 m²)

Expand to show TLE details & history
Last TLE update: 21 hours ago

TLE from 21 hours ago
0 FREGAT DEB
1 45820U 11037BE  25308.00285361  .00015028  00000-0  89494-2 0  9996
2 45820  51.5458 296.4570 1517643 284.3985  59.3582 11.72827909227030
Epoch: 2025-11-04T00:04Z
TLE epoch observation values (Epoch: 2025-11-04T00:04:06.551Z)
Latitude
-0.00002°
Longitude
-108.06643°
Altitude
1,327.986 km
Speed
7.401 km/s
True Right ascension
19h 45m 49s
True Declination
0° 00' 00"
Sunlit
Object was in daylight at epoch
Visualization orbit readout
Latitude
Unknown
Longitude
Unknown
Altitude
Unknown
Speed
Unknown
Apparent Right ascension
Unknown
Apparent Declination
Unknown
Sunlit
N/A
Visualization observer readout
Local Sidereal Time
17:24:54
Azimuth
Unknown
Elevation
Unknown
Doppler factor
Unknown
Orbital elements
Apogee altitude
3,047.265 km
Perigee altitude
563.355 km
Semi-major axis
8,183.447 km
Eccentricity
0.15176
Inclination
51.5458°
RAAN
296.457°
Arg. of periapsis
284.3985°
True anomaly
75.68824°
Mean anomaly
59.3582°
Eccentric anomaly
67.38506°
Mean motion
2.93183 °/min
Orbital period
122.79 mins
BSTAR
0.0089494
Loading maneuver chart data...
Computing Atmospheric mass density...
Loading historical data...
Loading historical data...
Loading historical data...
Loading historical data...
Loading historical data...
Loading historical data...
Loading historical data...

Documentation

Showing up to 5 results
|